JINZIJING 1 03

导读

JINZIJING 1 03即金紫荆一号03星,是中国香港航天科技研制的光学遥感卫星,于2021年12月7日成功发射,属于金紫荆卫星系列,是该系列当年第三次发射任务的组成星。它是金紫荆星座项目的一部分,该项目规划构建包含112颗低轨高频卫星的星座,可服务农业监测、防灾减灾、城市综合治理和生态环境建设等领域,也助推了大湾区航天科创合作发展。

Basic Information
目录编号:
49813
目录名称:
JINZIJING 1 03
国际标识:
2021-117B
轨道中心:
EARTH
卫星名称:
JINZIJING 1 03
卫星全名:
--
卫星状态:
已陨落 最后检测时间 2024-02-14
发射日期:
2021-12-07 UTC
国别 :
中国 (CN)
星等 :
--
Orbit Information
数据来源 国际轨道数据
星历时间: 2024-02-13T19:23:17+0800
轨道信息已过期881天
半长轴: 6519.673km
偏心率: 0.0013039
轨道倾角: 97.283°
近地点辐角 266.770°
升交点赤经 136.357°
平近点角 93.211°
近地点: 133.036km
远地点: 150.04km
周期: 87.317分钟
每日圈数: 16.491651
Detailed Information
使用方式:
暂无